Regional Weather Roundup
Issued by NWS

Home | Current Version | Previous Version | Graphics & Text | Print | Product List | Glossary On
Versions: 1 2 3 4 5 6 7 8 9 10 11 12 13 14 15 16 17 18 19 20 21 22 23 24 25 26 27 28 29 30 31 32 33 34 35 36 37 38 39 40 41 42 43 44 45 46 47 48 49 50
049
ASUS44 KLIX 260605
RWRLA
LOUISIANA WEATHER ROUNDUP
NATIONAL WEATHER SERVICE NEW ORLEANS LA
1200 AM CST WED NOV 26 2014

NOTE: "FAIR" INDICATES FEW OR NO CLOUDS BELOW 12,000 FEET WITH NO
      SIGNIFICANT WEATHER AND/OR OBSTRUCTIONS TO VISIBILITY.
      SKY/WX - SKY CONDITION AND SIGNIFICANT WEATHER.
      TMP - AIR TEMPERATURE.    DP   - DEWPOINT TEMPERATURE.
      RH  - RELATIVE HUMIDITY.  PRES - PRESSURE.
      HX  - HEAT INDEX.         WCI  - WIND CHILL INDEX.

*  THESE STATIONS ARE NOT NWS OR FAA STATIONS AND ARE NOT UNDER
   NWS QUALITY CONTROL.

LAZ040-048-061>063-065-066-069-260700-
SOUTHEAST LOUISIANA

CITY           SKY/WX    TMP DP  RH WIND       PRES   REMARKS
N.O. AUDUBON     N/A     47  36  64 MISG        N/A
6HR MIN TEMP:  47; 6HR MAX TEMP:  54;

N.O. INTL ARPT CLEAR     47  34  60 NW8       30.23S
6HR MIN TEMP:  47; 6HR MAX TEMP:  54;

N.O. LAKEFRONT CLEAR     50  36  58 NW18      30.23S
6HR MIN TEMP:  50; 6HR MAX TEMP:  55;

N.O. DOWNTOWN* FAIR      48  32  53 NW6       30.23R
6HR MIN TEMP:  48; 6HR MAX TEMP:  55;

SLIDELL        CLEAR     41  32  70 NW3       30.21S
6HR MIN TEMP:  41; 6HR MAX TEMP:  51;

BATON ROUGE    CLEAR     36  32  85 CALM      30.23F
6HR MIN TEMP:  36; 6HR MAX TEMP:  49;

BOOTHVILLE     MOCLDY    51  34  52 NW15      30.21R
6HR MIN TEMP:  51; 6HR MAX TEMP:  55;

BELLE CHASSE   CLEAR     48  34  58 NW5       30.22R
6HR MIN TEMP:  48; 6HR MAX TEMP:  55;

BOGALUSA*        N/A     37  32  81 CALM      30.23S
6HR MIN TEMP:  37; 6HR MAX TEMP:  51;

NEW ROADS*     FAIR      35  34  96 CALM      30.23F
6HR MIN TEMP:  35; 6HR MAX TEMP:  47;

GONZALES*      FAIR      38  37  97 CALM      30.23F
6HR MIN TEMP:  38; 6HR MAX TEMP:  51;

HAMMOND*       CLEAR     37  34  87 CALM      30.24S
HOUMA*         CLEAR     42  35  75 NW6       30.24S
6HR MIN TEMP:  42; 6HR MAX TEMP:  52;

PORT FOURCHON* CLEAR     48  36  61 N13       30.26R

$$

LAZ041-044-053-054-260700-
SOUTHWEST LOUISIANA

CITY           SKY/WX    TMP DP  RH WIND       PRES   REMARKS
LAKE CHARLES   CLEAR     39  37  92 CALM      30.22F
6HR MIN TEMP:  39; 6HR MAX TEMP:  47;

LAFAYETTE      PTCLDY    38  36  92 CALM      30.23F FOG
6HR MIN TEMP:  37; 6HR MAX TEMP:  49;

PATTERSON      CLEAR     37  36  93 CALM      30.26S
6HR MIN TEMP:  37; 6HR MAX TEMP:  52;

SALT POINT       N/A     48  36  63 CALM      30.24S
6HR MIN TEMP:  48; 6HR MAX TEMP:  57;

NEW IBERIA     CLEAR     37  34  89 CALM      30.24F
6HR MIN TEMP:  37; 6HR MAX TEMP:  47;

CHENAULT AIRPK CLEAR     40  38  93 CALM      30.23F
6HR MIN TEMP:  39; 6HR MAX TEMP:  51;


$$

LAZ027-028-260700-
CENTRAL LOUISIANA

CITY           SKY/WX    TMP DP  RH WIND       PRES   REMARKS
FORT POLK      CLEAR     38  37  96 S2        30.20F
6HR MIN TEMP:  37; 6HR MAX TEMP:  45;

ALEXANDRIA INT CLEAR     36  34  92 SE5       30.20F WCI  32
6HR MIN TEMP:  36; 6HR MAX TEMP:  46;

ALEXANDRIA     CLEAR     33  31  92 CALM      30.21F
6HR MIN TEMP:  33; 6HR MAX TEMP:  42;


$$

LAZ001-002-260700-
NORTHWEST LOUISIANA

CITY           SKY/WX    TMP DP  RH WIND       PRES   REMARKS
SHREVEPORT     PTCLDY    42  34  73 CALM      30.15F
6HR MIN TEMP:  38; 6HR MAX TEMP:  49;

BARKSDALE AFB  CLEAR     39  32  77 SE7       30.16F WCI  34
6HR MIN TEMP:  37; 6HR MAX TEMP:  46;

DTN SHREVEPORT PTCLDY    43  32  65 S3        30.16F
6HR MIN TEMP:  42; 6HR MAX TEMP:  51;


$$

LAZ014-016-260700-
NORTHEAST LOUISIANA

CITY           SKY/WX    TMP DP  RH WIND       PRES   REMARKS
MONROE         CLEAR     34  32  92 CALM      30.21F
6HR MIN TEMP:  33; 6HR MAX TEMP:  43;

TALLULAH       CLEAR     30  28  92 CALM      30.21F
6HR MIN TEMP:  28; 6HR MAX TEMP:  41;


$$




USA.gov is the U.S. government's official web portal to all federal, state and local government web resources and services.